| time (UTC) | temp F | wind direction | speed MPH | gust MPH | rain 1hr in | rain 24hr in | rain mn in | humidity % | barometer mb |
| 20260831011805 | 63 | 0 | 0.0 | 0.0 | 0.00 | 0.00 | 0.00 | 92 | 1020.1 |
| 20260831010904 | 63 | 0 | 0.0 | 0.0 | 0.00 | 0.00 | 0.00 | 92 | 1020.1 |
| 20260831010003 | 63 | 0 | 0.0 | 0.0 | 0.00 | 0.00 | 0.00 | 92 | 1020.1 |
| 20260831005403 | 64 | 0 | 0.0 | 0.0 | 0.00 | 0.00 | 0.00 | 91 | 1020.1 |
| 20260831004504 | 64 | 0 | 0.0 | 0.0 | 0.00 | 0.00 | 0.00 | 91 | 1020.1 |
| 20260831003813 | 64 | 0 | 0.0 | 0.0 | 0.00 | 0.00 | 0.00 | 90 | 1020.1 |
| 20260831002913 | 64 | 0 | 0.0 | 0.0 | 0.00 | 0.00 | 0.00 | 90 | 1020.1 |
| 20260831001803 | 64 | 0 | 0.0 | 0.0 | 0.00 | 0.00 | 0.00 | 89 | 1020.1 |
| 20260831000903 | 65 | 0 | 0.0 | 0.0 | 0.00 | 0.00 | 0.00 | 88 | 1020.1 |
| 20260831000005 | 65 | 0 | 0.0 | 0.0 | 0.00 | 0.00 | 0.00 | 87 | 1020.1 |
| 20260830235403 | 66 | 0 | 0.0 | 0.0 | 0.00 | 0.00 | 0.00 | 87 | 1020.1 |
| 20260830234504 | 66 | 0 | 0.0 | 0.0 | 0.00 | 0.00 | 0.00 | 86 | 1020.1 |
| 20260830233603 | 67 | 0 | 0.0 | 0.0 | 0.00 | 0.00 | 0.00 | 85 | 1020.1 |
| 20260830232703 | 68 | 0 | 0.0 | 0.0 | 0.00 | 0.00 | 0.00 | 84 | 1020.1 |
| 20260830231803 | 68 | 0 | 0.0 | 0.0 | 0.00 | 0.00 | 0.00 | 84 | 1020.1 |
| 20260830231115 | 68 | 0 | 0.0 | 0.0 | 0.00 | 0.00 | 0.00 | 83 | 1020.1 |
| 20260830230214 | 68 | 0 | 0.0 | 0.0 | 0.00 | 0.00 | 0.00 | 83 | 1020.1 |
| 20260830225403 | 68 | 0 | 0.0 | 0.0 | 0.00 | 0.00 | 0.00 | 82 | 1020.1 |
| 20260830224503 | 69 | 0 | 0.0 | 0.0 | 0.00 | 0.00 | 0.00 | 82 | 1020.1 |
| 20260830223605 | 69 | 0 | 0.0 | 0.0 | 0.00 | 0.00 | 0.00 | 81 | 1019.1 |
| 20260830222703 | 69 | 0 | 0.0 | 0.0 | 0.00 | 0.00 | 0.00 | 81 | 1019.1 |
| 20260830221803 | 69 | 0 | 0.0 | 0.0 | 0.00 | 0.00 | 0.00 | 81 | 1019.1 |
| 20260830220905 | 70 | 0 | 0.0 | 0.0 | 0.00 | 0.00 | 0.00 | 80 | 1019.1 |
| 20260830220214 | 70 | 315 | 0.0 | 37.0 | 0.00 | 0.00 | 0.00 | 80 | 1019.1 |
| 20260830215613 | 70 | 312 | 0.0 | 37.0 | 0.00 | 0.00 | 0.00 | 80 | 1019.1 |
| 20260830214503 | 70 | 0 | 0.0 | 0.0 | 0.00 | 0.00 | 0.00 | 80 | 1019.1 |
| 20260830213603 | 71 | 315 | 0.0 | 24.0 | 0.00 | 0.00 | 0.00 | 80 | 1019.1 |
| 20260830212705 | 71 | 315 | 0.0 | 39.0 | 0.00 | 0.00 | 0.00 | 80 | 1019.1 |
| 20260830211803 | 71 | 315 | 39.0 | 39.0 | 0.00 | 0.00 | 0.00 | 80 | 1019.1 |
| 20260830210903 | 71 | 315 | 0.0 | 34.0 | 0.00 | 0.00 | 0.00 | 79 | 1019.1 |
| 20260830210213 | 70 | 315 | 0.0 | 2.0 | 0.00 | 0.00 | 0.00 | 79 | 1019.1 |
| 20260830205403 | 71 | 316 | 0.0 | 13.0 | 0.00 | 0.00 | 0.00 | 79 | 1019.1 |
| 20260830204504 | 71 | 315 | 0.0 | 20.0 | 0.00 | 0.00 | 0.00 | 79 | 1019.1 |
| 20260830203605 | 71 | 315 | 0.0 | 4.0 | 0.00 | 0.00 | 0.00 | 79 | 1019.1 |
| 20260830202913 | 71 | 315 | 0.0 | 20.0 | 0.00 | 0.00 | 0.00 | 79 | 1019.1 |
| 20260830201804 | 71 | 292 | 0.0 | 44.0 | 0.00 | 0.00 | 0.00 | 79 | 1018.1 |
| 20260830201114 | 71 | 313 | 0.0 | 44.0 | 0.00 | 0.00 | 0.00 | 79 | 1018.1 |
| 20260830200003 | 71 | 277 | 2.0 | 3.0 | 0.00 | 0.00 | 0.00 | 79 | 1018.1 |
| 20260830195403 | 71 | 307 | 0.0 | 20.0 | 0.00 | 0.00 | 0.00 | 79 | 1018.1 |
| 20260830194503 | 71 | 252 | 0.0 | 3.0 | 0.00 | 0.00 | 0.00 | 80 | 1018.1 |
| 20260830193603 | 71 | 286 | 0.0 | 4.0 | 0.00 | 0.00 | 0.00 | 80 | 1018.1 |
| 20260830192703 | 71 | 315 | 0.0 | 31.0 | 0.00 | 0.00 | 0.00 | 82 | 1018.1 |
| 20260830191804 | 71 | 0 | 0.0 | 0.0 | 0.00 | 0.00 | 0.00 | 81 | 1018.1 |
| 20260830190903 | 71 | 315 | 0.0 | 9.0 | 0.00 | 0.00 | 0.00 | 81 | 1018.1 |
| 20260830190003 | 71 | 0 | 0.0 | 0.0 | 0.00 | 0.00 | 0.00 | 80 | 1018.1 |
| 20260830185404 | 71 | 297 | 0.0 | 1.0 | 0.00 | 0.00 | 0.00 | 80 | 1018.1 |
| 20260830184505 | 71 | 227 | 0.0 | 39.0 | 0.00 | 0.00 | 0.00 | 80 | 1018.1 |
| 20260830183603 | 71 | 225 | 39.0 | 39.0 | 0.00 | 0.00 | 0.00 | 79 | 1017.1 |
| 20260830182703 | 71 | 0 | 0.0 | 0.0 | 0.00 | 0.00 | 0.00 | 79 | 1017.1 |
| 20260830181803 | 71 | 315 | 0.0 | 3.0 | 0.00 | 0.00 | 0.00 | 80 | 1017.1 |
| 20260830180903 | 71 | 315 | 3.0 | 3.0 | 0.00 | 0.00 | 0.00 | 80 | 1017.1 |
| 20260830180005 | 71 | 0 | 0.0 | 0.0 | 0.00 | 0.00 | 0.00 | 81 | 1017.1 |
| 20260830175405 | 71 | 0 | 0.0 | 0.0 | 0.00 | 0.00 | 0.00 | 82 | 1018.1 |
| 20260830174505 | 71 | 225 | 0.0 | 2.0 | 0.00 | 0.00 | 0.00 | 83 | 1018.1 |
| 20260830173604 | 71 | 225 | 0.0 | 28.0 | 0.00 | 0.00 | 0.00 | 83 | 1017.1 |
| 20260830172705 | 72 | 225 | 7.0 | 7.0 | 0.00 | 0.00 | 0.00 | 83 | 1017.1 |
| 20260830171803 | 72 | 0 | 0.0 | 0.0 | 0.00 | 0.00 | 0.00 | 82 | 1017.1 |
| 20260830170903 | 72 | 0 | 0.0 | 0.0 | 0.00 | 0.00 | 0.00 | 82 | 1017.1 |
| 20260830170004 | 72 | 0 | 0.0 | 0.0 | 0.00 | 0.00 | 0.00 | 82 | 1017.1 |
| 20260830165403 | 72 | 0 | 0.0 | 0.0 | 0.00 | 0.00 | 0.00 | 81 | 1017.1 |
| 20260830164503 | 72 | 225 | 0.0 | 1.0 | 0.00 | 0.00 | 0.00 | 82 | 1017.1 |
| 20260830163603 | 72 | 309 | 0.0 | 13.0 | 0.00 | 0.00 | 0.00 | 83 | 1017.1 |
| 20260830162703 | 72 | 0 | 0.0 | 0.0 | 0.00 | 0.00 | 0.00 | 83 | 1017.1 |
| 20260830161805 | 72 | 0 | 0.0 | 0.0 | 0.00 | 0.00 | 0.00 | 82 | 1017.1 |
| 20260830160905 | 72 | 306 | 0.0 | 33.0 | 0.00 | 0.00 | 0.00 | 82 | 1017.1 |
| 20260830160005 | 73 | 288 | 4.0 | 5.0 | 0.00 | 0.00 | 0.00 | 81 | 1017.1 |
| 20260830155405 | 73 | 334 | 0.0 | 38.0 | 0.00 | 0.00 | 0.00 | 82 | 1017.1 |
| 20260830154715 | 73 | 335 | 0.0 | 38.0 | 0.00 | 0.00 | 0.00 | 81 | 1017.1 |
| 20260830153605 | 73 | 225 | 0.0 | 4.0 | 0.00 | 0.00 | 0.00 | 81 | 1017.1 |
| 20260830152703 | 73 | 269 | 0.0 | 43.0 | 0.00 | 0.00 | 0.00 | 82 | 1017.1 |
| 20260830151804 | 73 | 333 | 7.0 | 18.0 | 0.00 | 0.00 | 0.00 | 82 | 1017.1 |
| 20260830151114 | 73 | 270 | 1.0 | 53.0 | 0.00 | 0.00 | 0.00 | 81 | 1017.1 |
| 20260830150003 | 74 | 247 | 0.0 | 7.0 | 0.00 | 0.00 | 0.00 | 80 | 1017.1 |
| 20260830145613 | 74 | 282 | 3.0 | 13.0 | 0.00 | 0.00 | 0.00 | 80 | 1017.1 |
| 20260830144503 | 74 | 284 | 3.0 | 41.0 | 0.00 | 0.00 | 0.00 | 79 | 1016.1 |
| 20260830143603 | 75 | 264 | 1.0 | 23.0 | 0.00 | 0.00 | 0.00 | 79 | 1016.1 |
| 20260830142915 | 75 | 304 | 0.0 | 13.0 | 0.00 | 0.00 | 0.00 | 79 | 1016.1 |
| 20260830141806 | 75 | 304 | 0.0 | 9.0 | 0.00 | 0.00 | 0.00 | 80 | 1016.1 |
| 20260830141115 | 75 | 337 | 0.0 | 27.0 | 0.00 | 0.00 | 0.00 | 80 | 1016.1 |
| 20260830140213 | 76 | 355 | 27.0 | 27.0 | 0.00 | 0.00 | 0.00 | 79 | 1016.1 |
| 20260830135405 | 76 | 333 | 2.0 | 5.0 | 0.00 | 0.00 | 0.00 | 80 | 1016.1 |
| 20260830134503 | 76 | 328 | 1.0 | 26.0 | 0.00 | 0.00 | 0.00 | 80 | 1016.1 |
| 20260830133605 | 76 | 288 | 0.0 | 29.0 | 0.00 | 0.00 | 0.00 | 79 | 1016.1 |
| 20260830132703 | 77 | 316 | 0.0 | 36.0 | 0.00 | 0.00 | 0.00 | 78 | 1016.1 |
| 20260830132014 | 77 | 271 | 2.0 | 6.0 | 0.00 | 0.00 | 0.00 | 77 | 1016.1 |
| 20260830130905 | 80 | 284 | 15.0 | 15.0 | 0.00 | 0.00 | 0.00 | 76 | 1016.1 |
| 20260830130005 | 80 | 299 | 2.0 | 22.0 | 0.00 | 0.00 | 0.00 | 75 | 1016.1 |
| 20260830125404 | 81 | 313 | 0.0 | 23.0 | 0.00 | 0.00 | 0.00 | 75 | 1016.1 |
| 20260830124716 | 82 | 309 | 4.0 | 28.0 | 0.00 | 0.00 | 0.00 | 73 | 1016.1 |
| 20260830123603 | 81 | 251 | 0.0 | 15.0 | 0.00 | 0.00 | 0.00 | 73 | 1016.1 |
| 20260830122703 | 81 | 319 | 4.0 | 30.0 | 0.00 | 0.00 | 0.00 | 73 | 1016.1 |
| 20260830121808 | 81 | 323 | 30.0 | 30.0 | 0.00 | 0.00 | 0.00 | 72 | 1016.1 |
| 20260830120903 | 81 | 285 | 0.0 | 45.0 | 0.00 | 0.00 | 0.00 | 73 | 1016.1 |
| 20260830120005 | 81 | 255 | 10.0 | 40.0 | 0.00 | 0.00 | 0.00 | 73 | 1016.1 |
| 20260830115403 | 82 | 244 | 6.0 | 40.0 | 0.00 | 0.00 | 0.00 | 73 | 1016.1 |
| 20260830114503 | 82 | 307 | 3.0 | 26.0 | 0.00 | 0.00 | 0.00 | 74 | 1016.1 |
| 20260830113603 | 82 | 301 | 9.0 | 32.0 | 0.00 | 0.00 | 0.00 | 74 | 1016.1 |
| 20260830112703 | 82 | 308 | 11.0 | 35.0 | 0.00 | 0.00 | 0.00 | 75 | 1016.1 |
| 20260830111803 | 80 | 292 | 0.0 | 24.0 | 0.00 | 0.00 | 0.00 | 76 | 1015.1 |
| 20260830110903 | 79 | 277 | 0.0 | 30.0 | 0.00 | 0.00 | 0.00 | 76 | 1015.1 |
| 20260830110004 | 79 | 259 | 0.0 | 35.0 | 0.00 | 0.00 | 0.00 | 76 | 1015.1 |
| 20260830105406 | 79 | 276 | 23.0 | 35.0 | 0.00 | 0.00 | 0.00 | 76 | 1016.1 |
| 20260830104503 | 79 | 254 | 24.0 | 25.0 | 0.00 | 0.00 | 0.00 | 76 | 1016.1 |
| 20260830103603 | 80 | 324 | 3.0 | 51.0 | 0.00 | 0.00 | 0.00 | 76 | 1016.1 |
| 20260830102913 | 80 | 288 | 0.0 | 39.0 | 0.00 | 0.00 | 0.00 | 76 | 1016.1 |
| 20260830101803 | 79 | 309 | 0.0 | 8.0 | 0.00 | 0.00 | 0.00 | 76 | 1016.1 |
| 20260830100903 | 79 | 301 | 0.0 | 29.0 | 0.00 | 0.00 | 0.00 | 77 | 1016.1 |
| 20260830100005 | 80 | 0 | 0.0 | 0.0 | 0.00 | 0.00 | 0.00 | 76 | 1016.1 |
| 20260830095403 | 81 | 98 | 0.0 | 39.0 | 0.00 | 0.00 | 0.00 | 76 | 1016.1 |
| 20260830094503 | 80 | 0 | 0.0 | 0.0 | 0.00 | 0.00 | 0.00 | 77 | 1016.1 |
| 20260830093816 | 79 | 0 | 0.0 | 0.0 | 0.00 | 0.00 | 0.00 | 77 | 1016.1 |
| 20260830092703 | 77 | 0 | 0.0 | 0.0 | 0.00 | 0.00 | 0.00 | 79 | 1016.1 |
| 20260830091803 | 78 | 0 | 0.0 | 0.0 | 0.00 | 0.00 | 0.00 | 79 | 1015.1 |
| 20260830090903 | 78 | 0 | 0.0 | 0.0 | 0.00 | 0.00 | 0.00 | 80 | 1015.1 |
| 20260830090004 | 77 | 0 | 0.0 | 0.0 | 0.00 | 0.00 | 0.00 | 81 | 1015.1 |
| 20260830085405 | 76 | 0 | 0.0 | 0.0 | 0.00 | 0.00 | 0.00 | 82 | 1015.1 |
| 20260830084503 | 75 | 0 | 0.0 | 0.0 | 0.00 | 0.00 | 0.00 | 83 | 1015.1 |
| 20260830083604 | 75 | 0 | 0.0 | 0.0 | 0.00 | 0.00 | 0.00 | 84 | 1015.1 |
| 20260830082705 | 74 | 0 | 0.0 | 0.0 | 0.00 | 0.00 | 0.00 | 86 | 1015.1 |
| 20260830081804 | 74 | 0 | 0.0 | 0.0 | 0.00 | 0.00 | 0.00 | 87 | 1015.1 |
| 20260830080904 | 73 | 202 | 0.0 | 77.0 | 0.00 | 0.00 | 0.00 | 88 | 1016.1 |
| 20260830080005 | 73 | 0 | 0.0 | 0.0 | 0.00 | 0.00 | 0.00 | 90 | 1016.1 |
| 20260830075614 | 73 | 67 | 0.0 | 77.0 | 0.00 | 0.00 | 0.00 | 90 | 1016.1 |
| 20260830074506 | 72 | 180 | 0.0 | 2.0 | 0.00 | 0.00 | 0.00 | 91 | 1016.1 |
| 20260830073603 | 71 | 90 | 0.0 | 73.0 | 0.00 | 0.00 | 0.00 | 93 | 1016.1 |
| 20260830072703 | 70 | 90 | 73.0 | 73.0 | 0.00 | 0.00 | 0.00 | 94 | 1016.1 |
| 20260830071803 | 69 | 0 | 0.0 | 0.0 | 0.00 | 0.00 | 0.00 | 95 | 1016.1 |
| 20260830070903 | 69 | 90 | 0.0 | 52.0 | 0.00 | 0.00 | 0.00 | 96 | 1016.1 |
| 20260830070003 | 68 | 0 | 0.0 | 0.0 | 0.00 | 0.00 | 0.00 | 97 | 1016.1 |
| 20260830065403 | 68 | 0 | 0.0 | 0.0 | 0.00 | 0.00 | 0.00 | 97 | 1016.1 |
| 20260830064503 | 67 | 0 | 0.0 | 0.0 | 0.00 | 0.00 | 0.00 | 97 | 1016.1 |
| 20260830063606 | 67 | 90 | 0.0 | 31.0 | 0.00 | 0.00 | 0.00 | 97 | 1016.1 |
| 20260830062703 | 67 | 0 | 0.0 | 0.0 | 0.00 | 0.00 | 0.00 | 97 | 1016.1 |
| 20260830061803 | 66 | 0 | 0.0 | 0.0 | 0.00 | 0.00 | 0.00 | 97 | 1016.1 |
| 20260830060905 | 66 | 0 | 0.0 | 0.0 | 0.00 | 0.00 | 0.00 | 97 | 1015.1 |
| 20260830060005 | 66 | 0 | 0.0 | 0.0 | 0.00 | 0.00 | 0.00 | 97 | 1015.1 |
| 20260830055403 | 66 | 0 | 0.0 | 0.0 | 0.00 | 0.00 | 0.00 | 97 | 1016.1 |
| 20260830054503 | 66 | 0 | 0.0 | 0.0 | 0.00 | 0.00 | 0.00 | 97 | 1016.1 |
| 20260830053603 | 66 | 90 | 0.0 | 13.0 | 0.00 | 0.00 | 0.00 | 97 | 1016.1 |
| 20260830052703 | 66 | 0 | 0.0 | 0.0 | 0.00 | 0.00 | 0.00 | 96 | 1016.1 |
| 20260830051805 | 66 | 0 | 0.0 | 0.0 | 0.00 | 0.00 | 0.00 | 96 | 1016.1 |
| 20260830050903 | 66 | 0 | 0.0 | 0.0 | 0.00 | 0.00 | 0.00 | 96 | 1016.1 |
| 20260830050214 | 67 | 0 | 0.0 | 0.0 | 0.00 | 0.00 | 0.00 | 96 | 1016.1 |
| 20260830045613 | 67 | 0 | 0.0 | 0.0 | 0.00 | 0.00 | 0.00 | 95 | 1016.1 |
| 20260830044503 | 67 | 0 | 0.0 | 0.0 | 0.00 | 0.00 | 0.00 | 95 | 1016.1 |
| 20260830043603 | 67 | 0 | 0.0 | 0.0 | 0.00 | 0.00 | 0.00 | 95 | 1016.1 |
| 20260830042705 | 67 | 0 | 0.0 | 0.0 | 0.00 | 0.00 | 0.00 | 94 | 1016.1 |
| 20260830042014 | 67 | 0 | 0.0 | 0.0 | 0.00 | 0.00 | 0.00 | 94 | 1016.1 |
| 20260830040903 | 68 | 0 | 0.0 | 0.0 | 0.00 | 0.00 | 0.00 | 93 | 1016.1 |
| 20260830040005 | 68 | 0 | 0.0 | 0.0 | 0.00 | 0.00 | 0.00 | 92 | 1016.1 |
| 20260830035404 | 68 | 0 | 0.0 | 0.0 | 0.00 | 0.00 | 0.00 | 92 | 1016.1 |
| 20260830034503 | 69 | 0 | 0.0 | 0.0 | 0.00 | 0.00 | 0.00 | 91 | 1016.1 |
| 20260830033603 | 69 | 0 | 0.0 | 0.0 | 0.00 | 0.00 | 0.00 | 91 | 1016.1 |
| 20260830032703 | 69 | 0 | 0.0 | 0.0 | 0.00 | 0.00 | 0.00 | 90 | 1016.1 |
| 20260830031804 | 70 | 0 | 0.0 | 0.0 | 0.00 | 0.00 | 0.00 | 90 | 1016.1 |
| 20260830031115 | 70 | 0 | 0.0 | 0.0 | 0.00 | 0.00 | 0.00 | 89 | 1016.1 |
| 20260830030003 | 71 | 0 | 0.0 | 0.0 | 0.00 | 0.00 | 0.00 | 89 | 1016.1 |
| 20260830025403 | 71 | 315 | 0.0 | 39.0 | 0.00 | 0.00 | 0.00 | 88 | 1016.1 |
| 20260830024504 | 72 | 315 | 39.0 | 39.0 | 0.00 | 0.00 | 0.00 | 88 | 1016.1 |
| 20260830023813 | 72 | 0 | 0.0 | 0.0 | 0.00 | 0.00 | 0.00 | 88 | 1016.1 |
| 20260830022705 | 72 | 22 | 0.0 | 54.0 | 0.00 | 0.00 | 0.00 | 88 | 1016.1 |
| 20260830021803 | 72 | 22 | 54.0 | 54.0 | 0.00 | 0.00 | 0.00 | 88 | 1017.1 |
| 20260830020903 | 72 | 0 | 0.0 | 0.0 | 0.00 | 0.00 | 0.00 | 88 | 1017.1 |
| 20260830020003 | 71 | 225 | 0.0 | 20.0 | 0.00 | 0.00 | 0.00 | 89 | 1017.1 |
| 20260830015403 | 71 | 225 | 0.0 | 39.0 | 0.00 | 0.00 | 0.00 | 89 | 1017.1 |
| 20260830014503 | 71 | 225 | 0.0 | 39.0 | 0.00 | 0.00 | 0.00 | 89 | 1017.1 |
| 20260830013812 | 71 | 0 | 0.0 | 0.0 | 0.00 | 0.00 | 0.00 | 89 | 1017.1 |